Regional Weather Roundup
Issued by NWS New Orleans/Baton Rouge, LA

Home | Current Version | Previous Version | Text Only | Print | Product List | Glossary On
Versions: 1 2 3 4 5 6 7 8 9 10 11 12 13 14 15 16 17 18 19 20 21 22 23 24 25 26 27 28 29 30 31 32 33 34 35 36 37 38 39 40 41 42 43 44 45 46 47 48 49 50
065
ASUS44 KLIX 171801
RWRLIX
NEW ORLEANS REGIONAL WEATHER ROUNDUP
NATIONAL WEATHER SERVICE NEW ORLEANS LA
100 PM CDT THU APR 17 2014

NOTE: "FAIR" INDICATES FEW OR NO CLOUDS BELOW 12,000 FEET WITH NO
      SIGNIFICANT WEATHER AND/OR OBSTRUCTIONS TO VISIBILITY.
      SKY/WX - SKY CONDITION AND SIGNIFICANT WEATHER.
      TMP - AIR TEMPERATURE.     DP    - DEWPOINT TEMPERATURE.
      RH  - RELATIVE HUMIDITY.   PRES  - PRESSURE.
      HI  - HEAT INDEX.          WCI   - WIND CHILL INDEX.

*  THESE STATIONS ARE NOT NWS OR FAA STATIONS AND ARE NOT UNDER
   NWS QUALITY CONTROL.

LAZ038-040-048-061>063-065>067-069-171900-
SOUTHEAST LOUISIANA

CITY           SKY/WX    TMP DP  RH WIND       PRES   REMARKS
N.O. AUDUBON   NOT AVBL
N.O. INTL ARPT CLOUDY    66  59  78 E18       30.17F
6HR MIN TEMP:  58; 6HR MAX TEMP:  66;

N.O. LAKEFRONT CLOUDY    63  59  87 E12       30.21F
6HR MIN TEMP:  58; 6HR MAX TEMP:  64; 6HR PCP: TRACE;

N.O. DOWNTOWN* CLOUDY    63  55  77 NE10G17   30.20F
6HR MIN TEMP:  57; 6HR MAX TEMP:  64;

SLIDELL        CLOUDY    64  57  78 E9        30.19F
6HR MIN TEMP:  53; 6HR MAX TEMP:  65;

BATON ROUGE    CLOUDY    66  53  63 E6        30.18F
6HR MIN TEMP:  51; 6HR MAX TEMP:  67;

BOOTHVILLE     CLOUDY    67  63  87 NE9       30.16F
6HR MIN TEMP:  57; 6HR MAX TEMP:  71;

BELLE CHASSE   DRIZZLE   65  59  81 NE14      30.18F
6HR MIN TEMP:  55; 6HR MAX TEMP:  67;

BOGALUSA*        N/A     67  56  68 SE8       30.22F
6HR MIN TEMP:  51; 6HR MAX TEMP:  68;

GALLIANO*      NOT AVBL
NEW ROADS*     NOT AVBL
GONZALES*      NOT AVBL
HAMMOND*       NOT AVBL
HOUMA*         CLOUDY    66  57  72 NE12      30.16F
PORT FOURCHON* MOCLDY    68  61  77 NE9       30.16F

$$

MSZ070-080>082-171900-
SOUTHERN MISSISSIPPI

CITY           SKY/WX    TMP DP  RH WIND       PRES   REMARKS
MCCOMB         CLOUDY    64  53  67 SE8       30.21F
6HR MIN TEMP:  49; 6HR MAX TEMP:  65;

GULFPORT       CLOUDY    67  56  67 E10       30.20F
6HR MIN TEMP:  56; 6HR MAX TEMP:  68;

BILOXI         NOT AVBL
PASCAGOULA     CLOUDY    68  56  65 E8        30.20F
6HR MIN TEMP:  54; 6HR MAX TEMP:  69;


$$

COASTAL OBSERVATIONS
LAKE AND NEARSHORE STATIONS

STATION/POSITION TIME  TEMP    WIND        PRES    WAVE
                       AIR SEA DIR/SP/G            HT/PER
                 (UTC) (F)     (DEG/KT/KT) (MB)    (FT/S)
PASCAGOULA       1700   65      80/ 18/ 22 1021.8
WAVELAND YACHT   1700   62 66  110/ 17/ 23 1021.9
GRAND ISLE       1700   67 67   70/ 11/ 13 1021.3
SOUTHWEST PASS   1700   71 58   50/ 12/ 13 1021.0
NEW CANAL        1700   63 63   70/ 11/ 14 1022.9
SHELL BEACH      1700   62 61   60/ 15/ 23 1021.8

OFFSHORE STATIONS

STATION/POSITION TIME  TEMP    WIND        PRES    WAVE
                       AIR SEA DIR/SP/G            HT/PER
                 (UTC) (F)     (DEG/KT/KT) (MB)    (FT/S)
64 S DAUPHIN ISL 1653   66 71   80/ 23/ 29 1021.2

$$




USA.gov is the U.S. government's official web portal to all federal, state and local government web resources and services.